Location: Newark
(44.5208°N, 2.4294°E)
Time: 00:14:58
(UTC+00:00)

Envisat - Pass Details

Date: 25 September 2019
Orbit: 764 x 766 km, 98.1° (Epoch: 22 October)

Event Time Altitude Azimuth Distance (km) Brightness Sun altitude
Rises 19:38:21 0° 224° (SW) 3,223 6.5 -21.0°
Reaches altitude 10° 19:43:41 10° 272° (W) 2,306 6.5 -21.9°
Maximum altitude 19:43:53 10° 274° (W) 2,305 6.5 -21.9°
Drops below altitude 10° 19:44:02 10° 276° (W) 2,306 6.5 -22.0°
Sets 19:49:27 0° 324° (NW) 3,242 7.2 -22.9°
